Flag for Germany Weather past 2 weeks in Wismar, Mecklenburg-Western Pomerania, Germany

Now
52 °F

Fog.


Feels Like: 51 °F
Forecast: 44 / 51 °F
Wind: 3 mph from Southwest

Location: Schwerin

Current Time: Oct 21, 2014 at 6:37:39 AM

Latest Report: Oct 21, 2014 at 6:00 AM


Visibility: 4 mi

Pressure: 29.76 "Hg

Humidity: 97%

Dew point: 51 °F

Location of WismarLocation

Historic Weather in Wismar — Graph

°F

Wismar temperature yesterday

Maximum temperature yesterday: 60 °F (at 2:00 PM)
Minimum temperature yesterday: 53 °F (at 8:00 PM)
Average temperature yesterday: 56 °F

Past Weeks' High & Low Weather Summary

 TemperatureHumidityPressure
High71 °F (Oct 19, 4:00 PM)100% (Oct 14, 1:00 AM)30.18 "Hg (Oct 14, 1:00 AM)
Low47 °F (Oct 8, 8:00 AM)57% (Oct 6, 4:00 PM)29.58 "Hg (Oct 7, 4:00 PM)
Average56 °F88%29.84 "Hg
* Reported Oct 6 4:00 AM — Oct 21 4:00 AM, Wismar, Weather by CustomWeather, © 2014

Note: Actual official high and low records may vary slightly from our data, if they occured in-between our weather recording intervals... More about our weather records

Advertising

Wismar weather history for previous 24 hours

 ConditionsComfort  
Time TempWeatherWind HumidityBarometerVisibility
4:00 AM
Oct 21
52 °FLow clouds.5 mph96%29.79 "Hg6 mi
3:00 AM52 °FLow clouds.6 mph96%29.80 "Hg8 mi
2:00 AM52 °FDrizzle. Low clouds.6 mph97%29.80 "Hg7 mi
1:00 AM53 °FLight rain. Overcast.5 mph96%29.82 "Hg4 mi
12:00 AM53 °FLight rain. Overcast.5 mph94%29.83 "Hg7 mi
11:00 PM
Oct 20
53 °FLight rain. Overcast.6 mph93%29.85 "Hg4 mi
10:00 PM54 °FOvercast.5 mph85%29.85 "Hg16 mi
9:00 PM54 °FOvercast.5 mph86%29.85 "Hg11 mi
8:00 PM53 °FOvercast.5 mph87%29.85 "Hg11 mi
7:00 PM54 °FPassing clouds.3 mph80%29.85 "Hg12 mi
6:00 PM56 °FPartly sunny.6 mph73%29.85 "Hg11 mi
4:00 PM59 °FScattered clouds.8 mph71%29.84 "Hg12 mi
3:00 PM59 °FPartly sunny.8 mph76%29.84 "Hg12 mi
2:00 PM60 °FPartly sunny.9 mph72%29.84 "Hg8 mi
1:00 PM60 °FPartly sunny.9 mph70%29.84 "Hg10 mi
12:00 PM59 °FOvercast.9 mph81%29.84 "Hg10 mi
10:00 AM55 °FRain. Overcast.7 mph95%29.82 "HgN/A
9:00 AM56 °FOvercast.8 mph89%29.81 "Hg11 mi
8:00 AM55 °FOvercast.7 mph93%29.80 "Hg9 mi
7:00 AM56 °FOvercast.8 mph94%29.80 "Hg9 mi
Weather by CustomWeather, © 2014

See weather overviewHow to use our weather pages